Hourly Weather Roundup
Issued by NWS Central Illinois

Home | Current Version | Previous Version | Text Only | Print | Product List | Glossary On
Versions: 1 2 3 4 5 6 7 8 9 10 11 12 13 14 15 16 17 18 19 20 21 22 23 24 25 26 27 28 29 30 31 32 33 34 35 36 37 38 39 40 41 42 43 44 45 46 47 48 49 50
000
NZUS43 KILX 311210
HWRILX

AREA WEATHER ROUNDUP
NATIONAL WEATHER SERVICE, LINCOLN IL
700 AM CDT FRI JUL 31 2015


CITY           SKY/WX    TMP DP  RH WIND       PRES   REMARKS
BLOOMINGTON    SUNNY     70  66  86 W7        30.10S
6HR MIN TEMP:  68; 6HR MAX TEMP:  73;

CHAMPAIGN      SUNNY     66  64  93 W3        30.10R
6HR MIN TEMP:  62; 6HR MAX TEMP:  67;

DANVILLE       SUNNY     65  64  96 CALM      30.06R
6HR MIN TEMP:  64; 6HR MAX TEMP:  66;

DECATUR        SUNNY     73  65  75 NW5       30.10R
6HR MIN TEMP:  71; 6HR MAX TEMP:  75;

EFFINGHAM      SUNNY     69  64  84 W3        30.12R
FLORA          SUNNY     69  64  83 NW6       30.11R
6HR MIN TEMP:  67; 6HR MAX TEMP:  76;

GALESBURG      SUNNY     66  64  93 SW5       30.10R
JACKSONVILLE   SUNNY     69  66  89 SW5       30.12R
6HR MIN TEMP:  67; 6HR MAX TEMP:  72;

LACON          SUNNY     68  65  88 SW3       30.06S
6HR MIN TEMP:  65; 6HR MAX TEMP:  73;

LAWRENCEVILLE  SUNNY     69  65  86 NW3       30.09R
6HR MIN TEMP:  67; 6HR MAX TEMP:  71;

LITCHFIELD     SUNNY     67  64  88 W3        30.13R
$$


CITY           SKY/WX    TMP DP  RH WIND       PRES   REMARKS
LINCOLN        SUNNY     73  65  78 W3        30.10R
6HR MIN TEMP:  70; 6HR MAX TEMP:  75;

MACOMB         SUNNY     65  64  96 CALM      30.13R
MATTOON        SUNNY     68  63  84 W5        30.10R
6HR MIN TEMP:  64; 6HR MAX TEMP:  72;

MT CARMEL AP   SUNNY     68  63  83 W3        30.09R
OLNEY-NOBLE AP SUNNY     66  64  94 NW3       30.11R
PARIS          SUNNY     65  64  98 W5        30.10R
6HR MIN TEMP:  62; 6HR MAX TEMP:  66;

PEORIA         SUNNY     71  63  75 W5        30.09R
6HR MIN TEMP:  70; 6HR MAX TEMP:  73;

PONTIAC        SUNNY     68  67  96 SW5       30.08R
RANTOUL        SUNNY     68  65  91 W5        30.09R
6HR MIN TEMP:  65; 6HR MAX TEMP:  71;

ROBINSON       SUNNY     65  64  96 CALM      30.10R
6HR MIN TEMP:  61; 6HR MAX TEMP:  66;

SPRINGFIELD    SUNNY     67  64  90 W3        30.11R
6HR MIN TEMP:  63; 6HR MAX TEMP:  69;

TAYLORVILLE    SUNNY     64  64 100 W3        30.11R
$$

...REGIONAL REPORTS...


CITY           SKY/WX    TMP DP  RH WIND       PRES   REMARKS
CHICAGO O`HARE MOSUNNY   70  59  68 W9        30.01S
KANKAKEE       SUNNY     67  64  91 W7        30.07R
MOLINE         SUNNY     68  64  87 W5        30.07R
MOUNT STERLING NOT AVBL
MOUNT VERNON   SUNNY     72  63  73 CALM      30.12R
PITTSFIELD     CLEAR     71  63  76 W5        30.14R
QUINCY         CLEAR     68  64  87 SW5       30.13R
ROCKFORD       PTSUNNY   69  63  81 CALM      30.05R
$$


CITY           SKY/WX    TMP DP  RH WIND       PRES   REMARKS
BURLINGTON     CLEAR     70  65  84 W6        30.10R
CEDAR RAPIDS   CLEAR     66  65  96 W7        30.09R
DES MOINES     PTCLDY    71  63  75 CALM      30.12R
KIRKSVILLE     CLOUDY    70  63  78 W5        30.15S
OTTUMWA        CLEAR     68  64  87 W8        30.10R
ST LOUIS       PTCLDY    73  65  75 W3        30.14R
$$


CITY           SKY/WX    TMP DP  RH WIND       PRES   REMARKS
TERRE HAUTE    SUNNY     69  65  86 NW3       30.08R
EVANSVILLE     SUNNY     72  65  78 CALM      30.09R
INDIANAPOLIS   MOSUNNY   71  63  75 NW7       30.06R
LAFAYETTE      SUNNY     65  64  97 CALM      30.07R
MADISON        MOSUNNY   68  59  73 W6        30.01R
MILWAUKEE      MOSUNNY   70  57  63 W7        29.99R
$$





USA.gov is the U.S. government's official web portal to all federal, state and local government web resources and services.